Regional Weather Roundup
Issued by NWS Upton, NY

Home | Current Version | Previous Version | Text Only | Print | Product List | Glossary On
Versions: 1 2 3 4 5 6 7 8 9 10 11 12 13 14 15 16 17 18 19 20 21 22 23 24 25 26 27 28 29 30 31 32 33 34 35 36 37 38 39 40 41 42 43 44 45 46 47 48 49 50
581
ASUS41 KOKX 310405
RWROKX

REGIONAL WEATHER ROUNDUP
NATIONAL WEATHER SERVICE NEW YORK NY
1200 AM EDT SUN JUL 31 2016

NOTE: "FAIR" INDICATES FEW OR NO CLOUDS BELOW 12,000 FEET WITH NO
SIGNIFICANT WEATHER AND/OR OBSTRUCTIONS TO VISIBILITY.

NYZ071-072-176-178-NJZ106-104-310500-
NEW YORK CITY METRO AREA

CITY           SKY/WX    TMP DP  RH WIND       PRES   REMARKS
Central Park   CLOUDY    74  72  93 VRB3      30.06S FOG
LaGuardia APRT CLOUDY    77  73  87 SE7       30.03S
Kennedy INTL   CLOUDY    76  73  91 E6        30.04S
Newark/Liberty LGT RAIN  75  73  93 E8        30.02S
Bronx Bot Gard   N/A     73  72  94 NE1       30.05R
Wall St Helipt CLOUDY    75  73  94 E6        30.03F
Teterboro      LGT RAIN  76  72  87 CALM      30.02S FOG
$$

NYZ177-179-078>081-310500-
LONG ISLAND NEW YORK

CITY           SKY/WX    TMP DP  RH WIND       PRES   REMARKS
Farmingdale    CLOUDY    75  74  96 E5        30.04F
MacArthur/ISP  CLOUDY    75  73  93 CALM      30.05S
Shirley        CLOUDY    73  73 100 CALM      30.06S FOG
Riverhead      NOT AVBL
Westhampton    CLOUDY    73  71  93 SE5       30.07F FOG
Southhampton     N/A     73  72  94 S2        30.02S
Bridgehampton    N/A     72  72 100 CALM      30.05F
East Hampton   MOCLDY    72  70  93 CALM      30.05F
Montauk          N/A     74  72  93 CALM      30.07F
$$

NYZ052-065-067-310500-
HUDSON VALLEY

CITY           SKY/WX    TMP DP  RH WIND       PRES   REMARKS
White Plains   LGT RAIN  73  71  93 E3        30.05S FOG
Newburgh       DRIZZLE   70  70 100 CALM      30.07S FOG
Montgomery     CLOUDY    69  68  96 NE3       30.05F
Poughkeepsie   CLOUDY    72  68  87 NW5       30.05R
Albany         LGT RAIN  69  64  84 CALM      30.08R
$$

NJZ001-105-106-008-010-013-015-019>022-104-310500-
NEW JERSEY

CITY           SKY/WX    TMP DP  RH WIND       PRES   REMARKS
Newark/Liberty LGT RAIN  75  73  93 E8        30.02S
Teterboro      LGT RAIN  76  72  87 CALM      30.02S FOG
Caldwell       CLOUDY    74  72  93 CALM      30.04S FOG
Morristown     HVY RAIN  72  70  94 CALM      30.04R
Somerville     CLOUDY    73  71  93 CALM      30.01S FOG
Linden         CLOUDY    75  73  93 CALM      30.04F
Sussex         CLOUDY    70  69  97 CALM      30.05S
Abdover          N/A     70  68  93 NE3       30.05S
Trenton        LGT RAIN  74  72  93 E5        30.02S
Millville      LGT RAIN  76  72  87 E5        30.01S
Atlantic City  CLOUDY    77  72  84 E5        30.01R
Wrightstown    CLOUDY    74  73  96 E5        29.99F
Toms River     CLOUDY    75  73  93 CALM      30.03S
Belmar         CLOUDY    75  73  93 SE5       30.04S
$$

PAZ047>061-062-071-310500-
EASTERN PENNSYLVANIA

CITY           SKY/WX    TMP DP  RH WIND       PRES   REMARKS
Philadelphia   LGT RAIN  76  73  91 E7        30.01S
Allentown      CLOUDY    71  68  90 E6        30.02F
Scranton       CLOUDY    70  67  90 NE5       30.03S
$$

CTZ002-004>006-009-010-012-RIZ004-006-007-MAZ004-011-015-310500-
SOUTHERN NEW ENGLAND
 IN CT

CITY           SKY/WX    TMP DP  RH WIND       PRES   REMARKS
Bradley INTL   LGT RAIN  71  69  93 S5        30.06S
Hartford       CLOUDY    74  71  91 CALM      30.05S
Danbury        CLOUDY    72  69  90 NE3       30.07S
Wtrbury/Oxford   N/A     72  66  83 CALM      30.09F
Bridgeport     LGT RAIN  76  73  91 CALM      30.04F
Meriden        CLOUDY    74  70  87 CALM      30.06S
New Haven      CLOUDY    75  73  93 CALM      30.06S
Chester        CLOUDY    73  72  94 CALM      30.07F FOG
Groton         CLOUDY    74  70  87 CALM      30.06S
Wilimantic     MOCLDY    74  71  91 CALM      30.07S

 IN RI

CITY           SKY/WX    TMP DP  RH WIND       PRES   REMARKS
Providence     LGT RAIN  74  69  85 SW6       30.07S
Block Island   CLOUDY    73  71  93 S7        30.07F
Westerly       CLOUDY    74  69  85 CALM      30.08R
 IN MA

CITY           SKY/WX    TMP DP  RH WIND       PRES   REMARKS
Boston         CLOUDY    71  69  93 SE6       30.06S
Worchester     CLOUDY    69  66  90 W8        30.09S
Westfield      CLOUDY    69  68  96 S3        30.06S
Provincetown   CLOUDY    72  70  93 S7        30.08F
Nantucket      FOG       66  65  96 SE3       30.09S VSB 1
$$

ANZ330-335-338-340-345-350-353-355-310500-
COASTAL MARINE OBSERVATIONS


STATION/POSITION TIME  SKY/WX   TEMP    WIND        PRES    VSBY  WAVE
                                AIR SEA DIR/SP/G                  HT/PER
                 (UTC)          (F)     (DEG/KT/KT) (MB)    (MI)  (FT/S)
NY HARB ENTRANCE 0250            75 73  120/  6/  8 1016.7          2/ 4
20S FIRE ISLAND  0250            76 77  130/  6/  8 1017.0          2/ 5
GREAT SOUTH BAY  0300            76 82  140/  6/  8   N/A
23 SSW MONTAUK P 0250            74 73  170/  4/  6 1018.5          2/ 8
15 E BARNEGAT LI 0300               78                N/A           2/ 4
HUDSON CANYON    0250            77 78              1017.4          2/ 9
KINGS POINT      0300               73                N/A
EXECUTION ROCKS  0300            74      70/  4/  6   N/A
CENTRAL LI SOUND 0300            76 75  180/  6/  8   N/A           0
EASTERN LI SOUND 0300            70 67  170/  4/  6   N/A
ROBBINS REEF     0312                               1016.3
$$


>>>>>>>>>>>>>>>>>>>>>>>>>>>> KEY <<<<<<<<<<<<<<<<<<<<<<<<<<<
>                                                          <
>     SKY/WX - Sky Condition/Present Weather               <
>     TMP    - Temperature in Fahrenheit                   <
>     DP     - Dew Point in Fahrenheit                     <
>     RH     - Relative Humidity in Percent                <
>     WIND   - Direction (from) and Speed in MPH           <
>     PRES   - Mean Sea Level Pressure (inches of Hg)      <
>     WCI    - Wind Chill Index                            <
>     VSB    - VISIBILITY IN MILES                         <
>     HX     - HEAT INDEX                                  <
>     TC     - TEMPERATURE IN CELSIUS                      <
>     VRB    - VARIABLE WIND DIRECTION                     <
>                                                          <
>>>>>>>>>>>>>>>>>>>>>>>>>>>> KEY <<<<<<<<<<<<<<<<<<<<<<<<<<<




USA.gov is the U.S. government's official web portal to all federal, state and local government web resources and services.